| time (UTC) | temp F | wind direction | speed MPH | gust MPH | rain 1hr in | rain 24hr in | rain mn in | humidity % | barometer mb |
| 20260505080038 | 50 | 205 | 4.0 | 12.0 | 0.00 | 0.00 | 0.00 | 89 | 1009.5 |
| 20260505074533 | 51 | 203 | 3.0 | 12.0 | 0.00 | 0.00 | 0.00 | 90 | 1009.7 |
| 20260505073042 | 51 | 240 | 3.0 | 7.0 | 0.00 | 0.00 | 0.00 | 90 | 1009.6 |
| 20260505071544 | 50 | 221 | 4.0 | 10.0 | 0.00 | 0.00 | 0.00 | 91 | 1009.5 |
| 20260505070027 | 50 | 211 | 3.0 | 10.0 | 0.00 | 0.00 | 0.00 | 91 | 1009.6 |
| 20260505064527 | 50 | 200 | 2.0 | 7.0 | 0.00 | 0.00 | 0.00 | 90 | 1009.5 |
| 20260505063024 | 50 | 210 | 3.0 | 8.0 | 0.00 | 0.00 | 0.00 | 90 | 1009.5 |
| 20260505060010 | 50 | 217 | 3.0 | 9.0 | 0.00 | 0.00 | 0.00 | 89 | 1009.5 |
| 20260505054509 | 51 | 203 | 4.0 | 10.0 | 0.00 | 0.00 | 0.00 | 89 | 1009.5 |
| 20260505053004 | 51 | 201 | 4.0 | 10.0 | 0.00 | 0.00 | 0.00 | 88 | 1009.4 |
| 20260505051600 | 51 | 225 | 4.0 | 14.0 | 0.00 | 0.00 | 0.00 | 88 | 1009.5 |
| 20260505041552 | 51 | 231 | 4.0 | 14.0 | 0.00 | 0.00 | 0.00 | 87 | 1009.7 |
| 20260505040050 | 51 | 191 | 4.0 | 11.0 | 0.00 | 0.00 | 0.00 | 86 | 1009.8 |
| 20260505034545 | 50 | 360 | 4.0 | 18.0 | 0.00 | 0.00 | 0.00 | 87 | 1009.8 |
| 20260505033047 | 50 | 206 | 4.0 | 8.0 | 0.00 | 0.00 | 0.00 | 86 | 1009.9 |
| 20260505031545 | 50 | 183 | 4.0 | 10.0 | 0.00 | 0.00 | 0.00 | 86 | 1009.9 |
| 20260505030044 | 51 | 360 | 4.0 | 10.0 | 0.00 | 0.00 | 0.00 | 85 | 1010.0 |
| 20260505024545 | 51 | 200 | 4.0 | 11.0 | 0.00 | 0.00 | 0.00 | 85 | 1010.0 |
| 20260505023047 | 51 | 205 | 3.0 | 9.0 | 0.00 | 0.00 | 0.00 | 84 | 1010.2 |
| 20260505021540 | 51 | 192 | 4.0 | 14.0 | 0.00 | 0.00 | 0.00 | 83 | 1010.0 |
| 20260505020039 | 52 | 230 | 5.0 | 15.0 | 0.00 | 0.00 | 0.00 | 82 | 1010.1 |
| 20260505014538 | 52 | 213 | 5.0 | 18.0 | 0.00 | 0.00 | 0.00 | 81 | 1009.8 |
| 20260505013036 | 52 | 204 | 5.0 | 13.0 | 0.00 | 0.00 | 0.00 | 80 | 1009.7 |
| 20260505011545 | 52 | 186 | 5.0 | 15.0 | 0.00 | 0.00 | 0.00 | 78 | 1009.4 |
| 20260505010038 | 52 | 223 | 4.0 | 19.0 | 0.00 | 0.00 | 0.00 | 76 | 1009.2 |
| 20260505004535 | 52 | 173 | 4.0 | 11.0 | 0.00 | 0.00 | 0.00 | 74 | 1009.2 |
| 20260505003033 | 52 | 200 | 5.0 | 11.0 | 0.00 | 0.00 | 0.00 | 72 | 1009.0 |
| 20260505001534 | 53 | 211 | 5.0 | 12.0 | 0.00 | 0.00 | 0.00 | 69 | 1008.5 |
| 20260505000034 | 53 | 217 | 4.0 | 10.0 | 0.00 | 0.00 | 0.00 | 69 | 1008.5 |
| 20260504234532 | 53 | 194 | 5.0 | 12.0 | 0.00 | 0.00 | 0.00 | 68 | 1008.4 |
| 20260504233031 | 54 | 182 | 5.0 | 12.0 | 0.00 | 0.00 | 0.00 | 67 | 1008.3 |
| 20260504231531 | 54 | 217 | 7.0 | 17.0 | 0.00 | 0.00 | 0.00 | 64 | 1008.0 |
| 20260504230031 | 55 | 202 | 7.0 | 19.0 | 0.00 | 0.00 | 0.00 | 61 | 1007.9 |
| 20260504224529 | 56 | 185 | 4.0 | 15.0 | 0.00 | 0.00 | 0.00 | 60 | 1007.7 |
| 20260504223029 | 57 | 220 | 5.0 | 19.0 | 0.00 | 0.00 | 0.00 | 58 | 1007.7 |
| 20260504221528 | 57 | 148 | 6.0 | 13.0 | 0.00 | 0.00 | 0.00 | 56 | 1007.5 |
| 20260504220028 | 58 | 173 | 7.0 | 17.0 | 0.00 | 0.00 | 0.00 | 56 | 1007.3 |
| 20260504214527 | 59 | 198 | 7.0 | 22.0 | 0.00 | 0.00 | 0.00 | 55 | 1007.4 |
| 20260504213028 | 59 | 205 | 7.0 | 21.0 | 0.00 | 0.00 | 0.00 | 54 | 1007.3 |
| 20260504211527 | 59 | 193 | 9.0 | 21.0 | 0.00 | 0.00 | 0.00 | 53 | 1007.3 |
| 20260504210025 | 60 | 360 | 9.0 | 26.0 | 0.00 | 0.00 | 0.00 | 53 | 1007.4 |
| 20260504204528 | 60 | 194 | 9.0 | 25.0 | 0.00 | 0.00 | 0.00 | 50 | 1007.3 |
| 20260504203025 | 61 | 230 | 8.0 | 19.0 | 0.00 | 0.00 | 0.00 | 49 | 1007.2 |
| 20260504201524 | 62 | 196 | 11.0 | 22.0 | 0.00 | 0.00 | 0.00 | 44 | 1007.0 |
| 20260504200035 | 62 | 190 | 7.0 | 28.0 | 0.00 | 0.00 | 0.00 | 45 | 1007.2 |
| 20260504194522 | 62 | 184 | 7.0 | 26.0 | 0.00 | 0.00 | 0.00 | 47 | 1007.2 |
| 20260504193021 | 62 | 206 | 10.0 | 19.0 | 0.00 | 0.00 | 0.00 | 47 | 1007.2 |
| 20260504191530 | 61 | 198 | 11.0 | 27.0 | 0.00 | 0.00 | 0.00 | 49 | 1007.5 |
| 20260504190014 | 62 | 116 | 7.0 | 18.0 | 0.00 | 0.00 | 0.00 | 48 | 1007.7 |
| 20260504184513 | 62 | 360 | 10.0 | 19.0 | 0.00 | 0.00 | 0.00 | 46 | 1007.6 |
| 20260504183010 | 62 | 190 | 7.0 | 17.0 | 0.00 | 0.00 | 0.00 | 51 | 1007.5 |
| 20260504181503 | 63 | 192 | 7.0 | 17.0 | 0.00 | 0.00 | 0.00 | 51 | 1007.7 |
| 20260504174604 | 62 | 360 | 8.0 | 23.0 | 0.00 | 0.01 | 0.00 | 53 | 1007.4 |
| 20260504173100 | 62 | 111 | 8.0 | 18.0 | 0.00 | 0.01 | 0.00 | 51 | 1007.7 |
| 20260504171554 | 64 | 206 | 6.0 | 16.0 | 0.00 | 0.01 | 0.00 | 46 | 1007.6 |
| 20260504081541 | 45 | 209 | 2.0 | 4.0 | 0.00 | 0.07 | 0.00 | 78 | 1008.7 |